[[{"header":{"parameterUnit":"m.s-1","parameterCategory":1,"la1":30.2991,"la2":30.254,"lo1":-89.0895,"lo2":-89.0444,"dy":0.0017,"dx":0.0017,"nx":28,"ny":28,"refTime":"2024-07-31T21:00:00:Z","depth":0,"parameterNumber":2,"parameterNumberName":"U-component_of_WINDS"},"data":[0,0,0,0,0,0,0,0,0,0,0,0,0,0,0,0,0,0,0,0,0,0,0,0,0,0,0,0,0,0,0,0,0,0,0,0,0,0,0,0,0,0,0,0,0,0,0,0,0,0,0,0,0,0,0,0,0,0,1.2054,1.2056,0,1.2177,1.2179,1.218,1.2194,1.2192,1.2191,1.219,1.2317,1.2321,1.2325,0,0,0,0,0,0,0,0,0,0,0,0,0,1.183,1.1834,1.2054,1.2056,1.2057,1.2177,1.2179,1.218,1.2194,1.2192,1.2191,1.2189,1.2315,1.232,1.2326,0,0,0,0,0,0,0,0,0,0,0,0,0,1.1937,1.1835,1.2054,1.2078,1.2082,1.2177,1.2179,1.2181,1.2194,1.2192,1.219,1.2189,1.2313,1.232,1.2327,1.2406,0,0,1.2347,1.235,0,0,0,0,0,0,0,0,1.1931,1.1946,1.2073,1.2077,1.2081,1.2168,1.2146,1.2256,1.2195,1.2151,1.219,1.2188,1.2269,1.2279,1.2306,1.2412,1.2417,1.2348,1.2352,1.2355,1.2357,0,0,0,0,0,0,0,1.1924,1.194,1.2103,1.2075,1.208,1.2083,1.2096,1.2167,1.2219,1.2155,1.2156,1.2171,1.227,1.23,1.2309,1.2419,1.2348,1.2354,1.2358,1.2361,1.2594,1.2596,0,0,0,0,0,0,1.1912,1.1934,1.2099,1.2107,1.2,1.2088,1.2103,1.2142,1.2218,1.2228,1.2172,1.2171,1.2289,1.2301,1.2314,1.2411,1.2355,1.2361,1.2365,1.2592,1.2595,1.2597,0,0,0,0,0,0,1.1907,1.1927,1.2094,1.2021,1.2042,1.2094,1.2138,1.2145,1.2175,1.2231,1.2241,1.2193,1.2288,1.2304,1.2382,1.2415,1.2364,1.2371,1.2589,1.2593,1.2596,1.2605,0,0,0,0,0,0,1.1901,1.1925,1.1956,1.2021,1.2046,1.2161,1.214,1.2149,1.2186,1.2186,1.2253,1.2262,1.2288,1.2372,1.2389,1.2424,1.2376,1.2587,1.2591,1.2595,1.2602,1.2609,1.2614,0,0,0,0,0,1.1893,1.1954,1.1957,1.1977,1.2086,1.2163,1.2177,1.2205,1.2189,1.222,1.2256,1.226,1.2409,1.238,1.2399,1.2436,1.2585,1.259,1.2594,1.26,1.2607,1.2614,0,0,0,0,0,0,1.1892,1.1963,1.1968,1.2052,1.2101,1.2165,1.2205,1.2212,1.2267,1.2264,1.2297,1.2312,1.2389,1.242,1.2387,1.2516,1.2495,1.2504,1.2493,1.25,1.2506,1.2497,1.2382,0,0,0,0,0,1.1901,1.1957,1.2017,1.2086,1.211,1.2153,1.2188,1.2205,1.2257,1.2278,1.232,1.2371,1.2429,1.2466,1.2523,1.2607,1.2621,1.2642,1.2647,1.2652,1.2659,1.2704,1.2714,1.2612,1.2612,1.2612,0,0,1.1922,1.1968,1.2001,1.2087,1.2127,1.2184,1.2171,1.2232,1.2275,1.2288,1.2364,1.2396,1.2454,1.2535,1.2573,1.2564,1.269,1.2658,1.2661,1.2666,1.271,1.272,1.2728,1.2616,1.2615,1.2615,0,0,1.1988,1.2029,1.209,1.213,1.2191,1.2219,1.2233,1.2296,1.2317,1.2394,1.2404,1.2455,1.2555,1.2596,1.2629,1.2709,1.2714,1.2726,1.2756,1.28,1.2808,1.2815,1.2843,1.2852,1.2733,1.2734,1.2734,0,1.2006,1.2093,1.2121,1.2182,1.2218,1.2232,1.2293,1.2331,1.2407,1.2431,1.242,1.2544,1.2585,1.2675,1.2694,1.2721,1.2738,1.2719,1.2805,1.2812,1.2819,1.2846,1.2856,1.2735,1.2734,1.2734,1.2734,0,1.2111,1.2171,1.2213,1.2285,1.2327,1.2388,1.2424,1.2463,1.2476,1.2505,1.2582,1.2631,1.2697,1.2719,1.2733,1.2811,1.2803,1.2798,1.2777,1.283,1.2855,1.2866,1.2736,1.2736,1.2735,1.2735,0,0,1.2182,1.2267,1.2282,1.2314,1.2381,1.2428,1.2489,1.2553,1.2585,1.2636,1.2687,1.277,1.2765,1.2804,1.2822,1.286,1.2919,1.285,1.2852,1.2861,1.3006,1.301,1.3021,1.2922,1.2925,1.2926,1.3001,0,1.2256,1.2364,1.2391,1.2484,1.2539,1.2551,1.2604,1.265,1.2678,1.2729,1.276,1.2818,1.2807,1.283,1.2869,1.2904,1.2948,1.2899,1.297,1.2972,1.2955,1.3035,1.3039,1.3107,1.3011,1.3013,1.3014,0,1.2357,1.2409,1.2507,1.2565,1.2589,1.2636,1.2696,1.2744,1.2797,1.2814,1.2856,1.287,1.2933,1.2909,1.2996,1.2961,1.2992,1.3013,1.3017,1.3024,1.2996,1.3044,1.313,1.314,1.3031,1.3029,1.3028,0,1.2397,1.2492,1.2563,1.259,1.266,1.2693,1.2723,1.2773,1.281,1.2862,1.2885,1.2944,1.2977,1.3022,1.3051,1.3031,1.3135,1.3114,1.3151,1.315,1.3173,1.3171,1.3264,1.3193,1.3193,1.3193,1.3192,0,1.2476,1.2536,1.2582,1.2626,1.2692,1.2721,1.2786,1.2817,1.2861,1.291,1.2925,1.297,1.3006,1.3057,1.308,1.3148,1.3163,1.3178,1.3184,1.3177,1.3175,1.3198,1.3193,1.3195,1.3195,1.3194,1.3194,0,1.2533,1.2567,1.2644,1.2703,1.2719,1.2766,1.2816,1.2858,1.2886,1.2948,1.2964,1.3008,1.3068,1.3102,1.3178,1.3193,1.3268,1.3272,1.3251,1.3253,1.3288,1.3284,1.3399,1.3415,1.3333,1.3334,1.3335,0,1.2582,1.2627,1.2691,1.2724,1.2755,1.281,1.2846,1.2876,1.2913,1.2975,1.301,1.307,1.3121,1.3216,1.3255,1.3312,1.3317,1.3353,1.3325,1.3317,1.3316,1.3313,1.3317,1.3358,1.3358,1.3359,1.3359,0,1.2664,1.2677,1.273,1.2787,1.283,1.2877,1.2924,1.295,1.2987,1.3029,1.309,1.3129,1.3205,1.3265,1.3325,1.3356,1.3364,1.3368,1.3379,1.3373,1.3358,1.3366,1.3263,1.3365,1.3364,1.3364,1.3364,1.3363,1.2718,1.2758,1.2809,1.2866,1.2903,1.2946,1.2988,1.3021,1.3072,1.3136,1.3151,1.3215,1.3264,1.3346,1.3379,1.3429,1.3422,1.3439,1.3443,1.3447,1.3448,1.335,1.344,1.344,1.344,1.344,1.344,0,1.28,1.2832,1.2884,1.2948,1.2993,1.2995,1.3046,1.3084,1.314,1.3185,1.3234,1.3303,1.3361,1.3403,1.3462,1.3494,1.3499,1.3508,1.3506,1.3513,1.3451,1.3435,1.3503,1.3503,1.3503,1.3503,1.3503,1.3503,1.2848,1.2916,1.2936,1.3022,1.3055,1.3117,1.3146,1.3185,1.3221,1.3298,1.3346,1.3373,1.3417,1.3478,1.3531,1.3542,1.3562,1.3571,1.3583,1.3524,1.3517,1.3511,1.3496,1.3576,1.3576,1.364,1.3641,1.3641]},{"header":{"parameterUnit":"m.s-1","parameterCategory":1,"la1":30.2991,"la2":30.254,"lo1":-89.0895,"lo2":-89.0444,"dy":0.0017,"dx":0.0017,"nx":28,"ny":28,"refTime":"2024-07-31T21:00:00:Z","depth":0,"parameterNumber":3,"parameterNumberName":"V-component_of_WINDS"},"data":[0,0,0,0,0,0,0,0,0,0,0,0,0,0,0,0,0,0,0,0,0,0,0,0,0,0,0,0,0,0,0,0,0,0,0,0,0,0,0,0,0,0,0,0,0,0,0,0,0,0,0,0,0,0,0,0,0,0,3.8487,3.8486,0,3.847,3.847,3.847,3.8375,3.8372,3.837,3.8368,3.8352,3.8354,3.8356,0,0,0,0,0,0,0,0,0,0,0,0,0,3.8436,3.8438,3.8487,3.8486,3.8486,3.847,3.847,3.847,3.8375,3.8372,3.837,3.8367,3.8352,3.8354,3.8356,0,0,0,0,0,0,0,0,0,0,0,0,0,3.8443,3.8438,3.8487,3.8437,3.8432,3.847,3.847,3.8469,3.8376,3.8372,3.8369,3.8366,3.8351,3.8353,3.8356,3.844,0,0,3.8364,3.8365,0,0,0,0,0,0,0,0,3.8443,3.8445,3.8445,3.8441,3.8435,3.8421,3.8446,3.846,3.8377,3.8397,3.8368,3.8364,3.8378,3.8378,3.8382,3.8439,3.8439,3.8364,3.8366,3.8367,3.8367,0,0,0,0,0,0,0,3.8442,3.8445,3.848,3.8445,3.8439,3.8416,3.8413,3.8448,3.8407,3.8395,3.8388,3.8388,3.8375,3.838,3.8381,3.8439,3.8364,3.8366,3.8368,3.8369,3.8562,3.8565,0,0,0,0,0,0,3.8449,3.8445,3.848,3.8479,3.8431,3.8419,3.8416,3.8429,3.8406,3.84,3.8391,3.8383,3.8378,3.8379,3.838,3.8476,3.8367,3.8369,3.837,3.8558,3.8562,3.8566,0,0,0,0,0,0,3.8448,3.8453,3.8481,3.846,3.8462,3.8424,3.8439,3.8431,3.8436,3.8403,3.8395,3.8404,3.8375,3.8377,3.8425,3.8474,3.837,3.8373,3.8554,3.8559,3.8564,3.8669,0,0,0,0,0,0,3.8447,3.8453,3.8485,3.8462,3.8464,3.8527,3.8442,3.8433,3.844,3.8431,3.8413,3.8407,3.8372,3.8422,3.8428,3.8476,3.8374,3.8549,3.8556,3.8563,3.8661,3.8677,3.8691,0,0,0,0,0,3.8445,3.8516,3.8487,3.8492,3.8503,3.853,3.8531,3.8489,3.8445,3.8476,3.8455,3.8407,3.8468,3.8428,3.8434,3.8483,3.8546,3.8554,3.8562,3.8654,3.8674,3.8691,0,0,0,0,0,0,3.8547,3.8512,3.848,3.8545,3.8541,3.8514,3.8552,3.8512,3.8521,3.8512,3.846,3.8457,3.8513,3.8503,3.8459,3.8562,3.8499,3.8509,3.8567,3.8586,3.86,3.8601,3.8377,0,0,0,0,0,3.8576,3.8601,3.857,3.863,3.863,3.8592,3.8602,3.857,3.8564,3.8562,3.8544,3.8541,3.8558,3.8572,3.8586,3.8659,3.8653,3.8696,3.8711,3.8724,3.8732,3.8768,3.8787,3.8593,3.8593,3.8593,0,0,3.8638,3.8622,3.8641,3.865,3.8643,3.867,3.8591,3.8623,3.8642,3.8567,3.8611,3.8598,3.8591,3.8651,3.8677,3.8645,3.8784,3.8734,3.8744,3.8746,3.8779,3.8797,3.8813,3.8598,3.8597,3.8597,0,0,3.8764,3.8755,3.8803,3.8798,3.8788,3.8762,3.8774,3.8753,3.8741,3.8784,3.8728,3.875,3.8783,3.8779,3.8782,3.8905,3.8861,3.8911,3.899,3.9025,3.9041,3.9054,3.9097,3.9113,3.892,3.892,3.892,0,3.8843,3.888,3.8834,3.8868,3.8873,3.8806,3.8854,3.8851,3.8847,3.8852,3.8816,3.8853,3.8844,3.8902,3.8932,3.8936,3.8947,3.8912,3.9042,3.9055,3.9067,3.9107,3.9123,3.8926,3.8925,3.8925,3.8924,0,3.8976,3.9003,3.9043,3.9039,3.9049,3.909,3.905,3.9065,3.9032,3.901,3.9054,3.904,3.905,3.9061,3.903,3.9115,3.9095,3.9051,3.8986,3.9092,3.9129,3.9144,3.8935,3.8933,3.8931,3.8929,0,0,3.9166,3.9135,3.915,3.9147,3.9131,3.915,3.9188,3.9197,3.921,3.921,3.924,3.9268,3.9227,3.923,3.9198,3.9229,3.9326,3.9181,3.918,3.9208,3.9417,3.9449,3.9467,3.9297,3.93,3.9302,3.9417,0,3.9285,3.9347,3.9306,3.9375,3.9398,3.9334,3.9367,3.936,3.9341,3.9357,3.9335,3.9356,3.9301,3.9302,3.933,3.9308,3.9367,3.9299,3.9324,3.9326,3.9327,3.9487,3.9521,3.963,3.9431,3.9433,3.9435,0,3.9433,3.9437,3.9508,3.9485,3.9494,3.9524,3.9527,3.9545,3.9536,3.9519,3.9522,3.9481,3.9516,3.9453,3.95,3.9455,3.9462,3.9453,3.9456,3.9456,3.9386,3.949,3.9664,3.968,3.9458,3.9456,3.9454,0,3.9562,3.9586,3.9631,3.963,3.9605,3.9628,3.9619,3.9606,3.9613,3.9617,3.9621,3.963,3.9634,3.9641,3.9604,3.9561,3.9656,3.959,3.9642,3.9643,3.9665,3.9664,3.9841,3.9672,3.9671,3.9671,3.9671,0,3.9699,3.9745,3.9688,3.9716,3.9765,3.9717,3.9767,3.9751,3.974,3.9763,3.9709,3.9732,3.9681,3.9699,3.967,3.9713,3.9716,3.9703,3.9694,3.9707,3.9709,3.9711,3.9702,3.9675,3.9674,3.9674,3.9673,0,3.9852,3.9816,3.9861,3.9833,3.9827,3.9864,3.984,3.9864,3.984,3.987,3.9874,3.9837,3.9855,3.9818,3.9832,3.9812,3.9872,3.9852,3.9875,3.9869,3.9923,3.9918,4.0108,4.0129,3.9947,3.9949,3.995,0,3.9942,3.9975,3.995,3.9961,3.9954,3.9973,3.998,3.9934,3.9943,3.9934,3.9959,3.9973,3.9981,4.0013,3.9987,3.9997,3.9976,4.0042,3.9977,3.9988,3.9975,3.9974,3.9976,4.0055,4.0057,4.0059,4.006,0,4.0104,4.0084,4.0095,4.01,4.0109,4.0111,4.0109,4.0122,4.0072,4.0086,4.0103,4.0109,4.0122,4.0135,4.0139,4.0129,4.0087,4.0081,4.0093,4.0106,4.0117,4.0111,3.991,4.0077,4.0075,4.0074,4.0073,4.0072,4.0226,4.0252,4.0238,4.0252,4.0245,4.0244,4.0265,4.0243,4.0256,4.0262,4.0234,4.0257,4.0246,4.0246,4.0241,4.0259,4.0229,4.0248,4.0252,4.0257,4.0266,4.0115,4.026,4.0259,4.0259,4.0258,4.0258,0,4.0384,4.0371,4.0385,4.0383,4.0394,4.0352,4.0347,4.0359,4.038,4.0373,4.0381,4.04,4.0413,4.0388,4.0397,4.0415,4.0396,4.0419,4.0417,4.0415,4.0292,4.028,4.0435,4.0435,4.0435,4.0434,4.0434,4.0434,4.0467,4.0508,4.0486,4.0523,4.051,4.0531,4.0532,4.0531,4.0524,4.0548,4.0558,4.0541,4.0526,4.0533,4.0543,4.0535,4.0541,4.057,4.0556,4.0441,4.0424,4.0408,4.0396,4.0572,4.0572,4.0677,4.0678,4.0679]}]]